WA2TQI Weather Reports


time (UTC)temp
F
wind
direction
speed
knots
gust
knots
rain 1hr
in
rain 24hr
in
rain mn
in
humidity
%
barometer
mb
20260510230625 64 20 0.0 0.9 0.00 0.03 0.03 99 1015.1
20260510230121 64 274 0.0 0.0 0.00 0.03 0.03 99 1014.9
20260510225618 64 349 0.0 0.0 0.00 0.03 0.03 99 1014.6
20260510225114 64 243 0.0 0.0 0.00 0.03 0.03 99 1014.6
20260510224609 65 230 0.0 1.7 0.00 0.03 0.03 99 1014.3
20260510224106 65 296 0.9 0.9 0.00 0.03 0.03 99 1013.9
20260510223604 65 219 0.0 0.0 0.00 0.03 0.03 99 1013.9
20260510223102 65 211 0.0 0.0 0.00 0.03 0.03 99 1014.1
20260510222558 65 192 0.0 0.0 0.00 0.03 0.03 99 1014.1
20260510222055 65 309 0.0 0.0 0.00 0.03 0.03 98 1013.9
20260510221549 64 311 0.0 0.9 0.00 0.03 0.03 97 1014.1
20260510221046 65 308 0.0 0.9 0.00 0.03 0.03 96 1014.3
20260510220543 65 322 0.9 2.6 0.00 0.03 0.03 95 1014.2
20260510220039 65 323 1.7 2.6 0.05 0.03 0.03 95 1014.2
20260510215536 66 330 0.9 3.5 0.05 0.03 0.03 93 1014.1
20260510215034 67 324 0.9 1.7 0.07 0.02 0.02 92 1014.5
20260510214531 68 299 0.0 2.6 0.12 0.02 0.02 91 1014.8
20260510214027 70 277 0.9 2.6 0.05 0.01 0.01 86 1014.8
20260510213525 71 302 0.0 0.9 0.00 0.00 0.00 79 1014.4
20260510213021 72 303 0.0 1.7 0.00 0.00 0.00 76 1014.2
20260510212517 73 328 1.7 2.6 0.00 0.00 0.00 74 1014.0
20260510212014 73 329 1.7 1.7 0.00 0.00 0.00 71 1013.7
20260510211512 74 323 0.9 2.6 0.00 0.00 0.00 68 1013.7
20260510211012 76 14 2.6 2.6 0.00 0.00 0.00 63 1013.5
20260510210508 76 1 0.0 0.9 0.00 0.00 0.00 59 1013.4
20260510210008 77 287 0.9 2.6 0.00 0.00 0.00 59 1013.3
20260510205503 77 309 0.0 0.9 0.00 0.00 0.00 61 1013.4
20260510204958 77 312 0.0 0.0 0.00 0.00 0.00 60 1013.3
20260510204455 77 169 0.9 1.7 0.00 0.00 0.00 60 1013.3
20260510203951 77 275 0.9 1.7 0.00 0.00 0.00 61 1013.1
20260510203449 77 161 0.0 0.9 0.00 0.00 0.00 61 1013.2
20260510202949 76 180 0.0 0.9 0.00 0.00 0.00 64 1013.3
20260510202444 76 44 0.9 1.7 0.00 0.00 0.00 62 1013.3
20260510201941 76 198 0.0 0.0 0.00 0.00 0.00 64 1013.1
20260510201439 76 227 0.0 0.9 0.00 0.00 0.00 66 1013.2
20260510200935 76 194 0.0 0.9 0.00 0.00 0.00 64 1013.2
20260510200430 75 217 0.0 1.7 0.00 0.00 0.00 64 1013.5
20260510195923 75 211 0.0 0.0 0.00 0.00 0.00 66 1013.4
20260510195421 75 90 0.9 0.9 0.00 0.00 0.00 63 1013.5
20260510194916 75 181 1.7 3.5 0.00 0.00 0.00 65 1013.6
20260510194412 76 192 3.5 5.2 0.00 0.00 0.00 62 1013.8
20260510193908 77 195 3.5 7.0 0.00 0.00 0.00 62 1013.8
20260510193403 77 335 0.0 0.9 0.00 0.00 0.00 60 1013.8
20260510192859 77 343 0.0 0.0 0.00 0.00 0.00 62 1013.7
20260510192354 76 343 0.0 0.9 0.00 0.00 0.00 60 1013.6
20260510191850 77 202 0.0 0.9 0.00 0.00 0.00 62 1013.8
20260510191347 77 178 0.0 0.9 0.00 0.00 0.00 61 1013.8
20260510190844 77 11 0.9 2.6 0.00 0.00 0.00 61 1013.8
20260510190342 78 152 0.9 1.7 0.00 0.00 0.00 59 1013.7
20260510185838 77 204 1.7 6.1 0.00 0.00 0.00 58 1013.8
20260510185336 77 238 2.6 2.6 0.00 0.00 0.00 59 1013.8
20260510184833 77 296 0.9 1.7 0.00 0.00 0.00 59 1013.8
20260510184330 78 286 0.0 1.7 0.00 0.00 0.00 58 1013.7
20260510183824 78 298 1.7 1.7 0.00 0.00 0.00 58 1013.7
20260510183320 78 324 0.0 0.9 0.00 0.00 0.00 57 1013.7
20260510182816 78 326 0.0 2.6 0.00 0.00 0.00 57 1013.7
20260510182313 79 312 0.0 0.9 0.00 0.00 0.00 55 1013.7
20260510181809 79 270 1.7 1.7 0.00 0.00 0.00 55 1013.7
20260510181306 81 345 0.0 3.5 0.00 0.00 0.00 52 1013.8
20260510180802 83 317 0.0 1.7 0.00 0.00 0.00 53 1013.8
20260510180259 80 58 0.9 3.5 0.00 0.00 0.00 53 1013.5
20260510175756 80 307 1.7 2.6 0.00 0.00 0.00 55 1013.7
20260510175251 80 38 0.9 2.6 0.00 0.00 0.00 54 1013.7
20260510174749 80 292 1.7 3.5 0.00 0.00 0.00 55 1013.9
20260510174246 80 231 1.7 5.2 0.00 0.00 0.00 53 1013.9
20260510173737 80 13 0.9 2.6 0.00 0.00 0.00 54 1013.8
20260510173232 78 304 0.9 0.9 0.00 0.00 0.00 54 1013.8
20260510172728 79 341 0.9 2.6 0.00 0.00 0.00 56 1013.8
20260510172225 78 348 0.9 1.7 0.00 0.00 0.00 57 1013.7
20260510171722 79 0 1.7 2.6 0.00 0.00 0.00 56 1013.8
20260510171219 78 306 0.0 2.6 0.00 0.00 0.00 57 1013.9
20260510170716 78 150 0.9 2.6 0.00 0.00 0.00 56 1014.0
20260510170212 78 122 1.7 2.6 0.00 0.00 0.00 55 1014.0
20260510165708 79 166 0.9 1.7 0.00 0.00 0.00 59 1014.0
20260510165203 78 158 0.0 0.9 0.00 0.00 0.00 59 1013.9
20260510164702 77 256 1.7 5.2 0.00 0.00 0.00 58 1014.0
20260510164159 79 307 0.9 3.5 0.00 0.00 0.00 56 1014.0
20260510163659 78 275 0.9 3.5 0.00 0.00 0.00 58 1014.1
20260510163155 76 93 0.0 1.7 0.00 0.00 0.00 61 1014.1
20260510162654 77 263 0.9 2.6 0.00 0.00 0.00 59 1014.1
20260510162151 76 202 1.7 2.6 0.00 0.00 0.00 60 1013.9
20260510161647 76 95 0.9 1.7 0.00 0.00 0.00 60 1013.9
20260510161144 76 220 2.6 3.5 0.00 0.00 0.00 60 1014.0
20260510160641 76 182 0.0 0.0 0.00 0.00 0.00 61 1014.2
20260510160136 75 359 0.0 0.9 0.00 0.00 0.00 64 1014.1
20260510155632 74 77 0.0 2.6 0.00 0.00 0.00 63 1014.2
20260510155128 74 196 2.6 5.2 0.00 0.00 0.00 65 1014.1
20260510154624 74 183 0.0 1.7 0.00 0.00 0.00 64 1014.3
20260510154119 75 189 2.6 5.2 0.00 0.00 0.00 65 1014.2
20260510153615 73 333 0.0 1.7 0.00 0.00 0.00 68 1014.3
20260510153112 73 352 0.9 1.7 0.00 0.00 0.00 67 1014.4
20260510152608 73 15 0.0 0.9 0.00 0.00 0.00 70 1014.2
20260510152105 72 43 0.9 0.9 0.00 0.00 0.00 71 1014.4
20260510151602 72 165 1.7 2.6 0.00 0.00 0.00 71 1014.5
20260510151100 72 234 0.0 2.6 0.00 0.00 0.00 71 1014.6
20260510150600 72 265 1.7 1.7 0.00 0.00 0.00 72 1014.4
20260510150055 72 200 0.0 1.7 0.00 0.00 0.00 73 1014.5
20260510145553 71 248 0.0 1.7 0.00 0.00 0.00 75 1014.5
20260510145049 69 157 0.9 2.6 0.00 0.00 0.00 79 1014.5
20260510144546 68 119 0.9 0.9 0.00 0.00 0.00 81 1014.5
20260510144042 66 43 0.0 2.6 0.00 0.00 0.00 86 1014.4
20260510143537 67 35 0.9 2.6 0.00 0.00 0.00 84 1014.6
20260510143034 67 155 0.0 0.9 0.00 0.00 0.00 84 1014.7
20260510142530 66 46 0.9 1.7 0.00 0.00 0.00 86 1014.5
20260510142027 64 212 0.0 0.9 0.00 0.00 0.00 87 1014.8
20260510141524 64 69 1.7 1.7 0.00 0.00 0.00 88 1014.6
20260510141021 63 54 0.9 0.9 0.00 0.00 0.00 90 1014.5
20260510140518 63 321 0.0 0.9 0.00 0.00 0.00 91 1014.5
20260510140017 63 338 0.9 1.7 0.00 0.00 0.00 90 1014.6
20260510135513 63 220 0.9 0.9 0.00 0.00 0.00 90 1014.5
20260510135010 62 211 0.0 0.0 0.00 0.00 0.00 92 1014.7
20260510134507 61 211 0.0 0.9 0.00 0.00 0.00 94 1014.5
20260510134003 61 164 0.9 1.7 0.00 0.00 0.00 94 1014.5
20260510133459 60 174 0.0 1.7 0.00 0.00 0.00 96 1014.6
20260510132955 59 57 0.9 1.7 0.00 0.00 0.00 98 1014.4
20260510132453 58 143 0.9 1.7 0.00 0.00 0.00 99 1014.5
20260510131949 56 27 0.0 1.7 0.00 0.00 0.00 99 1014.8
20260510131447 56 4 0.9 1.7 0.00 0.00 0.00 99 1014.8
20260510130944 56 358 0.0 0.0 0.00 0.00 0.00 99 1014.8
20260510130440 56 326 0.0 0.9 0.00 0.00 0.00 99 1014.6
20260510125938 55 40 0.0 1.7 0.00 0.00 0.00 99 1014.6
20260510125434 55 134 0.0 0.0 0.00 0.00 0.00 99 1014.7
20260510124931 54 137 0.0 0.0 0.00 0.00 0.00 99 1014.5
20260510124427 54 114 0.0 0.0 0.00 0.00 0.00 99 1014.5
20260510123924 54 115 0.0 0.9 0.00 0.00 0.00 99 1014.3
20260510123419 54 117 0.0 0.0 0.00 0.00 0.00 99 1014.3
20260510122916 53 51 0.0 1.7 0.00 0.00 0.00 99 1014.2
20260510122410 53 78 1.7 1.7 0.00 0.00 0.00 99 1014.3
20260510121907 53 30 0.0 0.9 0.00 0.00 0.00 99 1014.3
20260510121405 53 307 0.0 1.7 0.00 0.00 0.00 99 1014.3
20260510120902 53 344 0.0 0.0 0.00 0.00 0.00 99 1014.4
20260510120359 53 351 0.0 0.0 0.00 0.00 0.00 99 1014.2
20260510115855 52 4 0.0 1.7 0.00 0.00 0.00 99 1014.1
20260510115352 52 103 0.9 1.7 0.00 0.00 0.00 99 1014.0
20260510114847 52 337 0.0 0.0 0.00 0.00 0.00 99 1014.0
20260510114345 52 340 0.0 0.9 0.00 0.00 0.00 99 1014.0
20260510113845 52 330 0.0 0.9 0.00 0.00 0.00 99 1013.9
20260510113341 52 10 0.0 0.0 0.00 0.00 0.00 99 1014.0
20260510112838 52 75 0.0 0.0 0.00 0.00 0.00 99 1013.9
20260510112335 52 16 0.0 0.0 0.00 0.00 0.00 99 1013.8
20260510111831 52 13 0.9 0.9 0.00 0.00 0.00 99 1013.7
20260510111328 52 340 0.0 0.9 0.00 0.00 0.00 99 1013.8
20260510110822 52 92 0.0 0.9 0.00 0.00 0.00 99 1013.4
20260510110320 52 57 0.0 0.0 0.00 0.00 0.00 99 1013.4
20260510105816 52 36 0.0 0.0 0.00 0.00 0.00 99 1013.4
20260510105316 52 67 0.0 0.0 0.00 0.00 0.00 99 1013.2
20260510104812 51 55 0.0 0.9 0.00 0.00 0.00 99 1013.4
20260510104310 51 113 0.0 0.0 0.00 0.00 0.00 99 1013.1
20260510103806 51 113 0.0 0.9 0.00 0.00 0.00 99 1013.3
20260510103303 51 113 0.0 0.0 0.00 0.00 0.00 99 1013.0
20260510102803 51 61 0.0 0.0 0.00 0.00 0.00 99 1013.3
20260510102259 51 18 0.0 0.0 0.00 0.00 0.00 99 1013.2
20260510101756 51 5 0.0 0.0 0.00 0.00 0.00 99 1013.1
20260510101255 51 12 0.0 0.0 0.00 0.00 0.00 99 1013.1
20260510100751 51 27 0.0 0.9 0.00 0.00 0.00 99 1013.2
20260510100250 51 327 0.0 0.0 0.00 0.00 0.00 99 1013.4
20260510095750 51 325 0.0 0.9 0.00 0.00 0.00 99 1013.4
20260510095245 51 325 0.0 0.0 0.00 0.00 0.00 99 1013.1
20260510094744 51 330 0.9 0.9 0.00 0.00 0.00 99 1012.8
20260510094240 51 342 0.9 1.7 0.00 0.00 0.00 99 1012.9
20260510093736 51 325 0.0 2.6 0.00 0.00 0.00 99 1012.8
20260510093233 51 341 0.0 0.9 0.00 0.00 0.00 99 1012.9
20260510092729 51 308 0.9 0.9 0.00 0.00 0.00 99 1012.7
20260510092225 51 342 0.9 1.7 0.00 0.00 0.00 99 1013.0
20260510091721 51 334 0.0 2.6 0.00 0.00 0.00 99 1012.7
20260510091218 51 338 0.0 1.7 0.00 0.00 0.00 99 1012.8
20260510090714 51 327 0.0 1.7 0.00 0.00 0.00 99 1012.5
20260510090211 51 355 0.0 0.0 0.00 0.00 0.00 99 1012.4
20260510085706 51 359 0.0 0.0 0.00 0.00 0.00 99 1012.2
20260510085202 51 25 0.0 0.0 0.00 0.00 0.00 99 1012.2
20260510084658 51 25 0.0 0.0 0.00 0.00 0.00 99 1012.2
20260510084155 51 25 0.0 0.0 0.00 0.00 0.00 99 1012.3
20260510083651 51 25 0.0 0.0 0.00 0.00 0.00 99 1012.2
20260510083149 50 29 0.0 0.0 0.00 0.00 0.00 99 1012.1
20260510082644 50 29 0.0 0.0 0.00 0.00 0.00 99 1012.2
20260510082140 50 29 0.0 0.0 0.00 0.00 0.00 99 1012.2
20260510081635 50 44 0.0 0.0 0.00 0.00 0.00 99 1012.2
20260510081131 50 42 0.0 0.0 0.00 0.00 0.00 99 1012.4
20260510080631 50 12 0.0 0.0 0.00 0.00 0.00 99 1012.3
20260510080127 50 34 0.0 0.0 0.00 0.00 0.00 99 1012.2
20260510075625 50 326 0.0 0.0 0.00 0.00 0.00 99 1012.3
20260510075122 50 323 0.0 0.0 0.00 0.00 0.00 99 1012.0
20260510074619 50 332 0.0 0.0 0.00 0.00 0.00 99 1012.0
20260510074115 50 328 0.0 0.0 0.00 0.00 0.00 99 1011.9
20260510073611 49 92 0.0 0.0 0.00 0.00 0.00 99 1011.9
20260510073108 49 92 0.0 0.0 0.00 0.00 0.00 99 1011.8
20260510072605 49 92 0.0 0.0 0.00 0.00 0.00 99 1011.6
20260510072101 48 92 0.0 0.0 0.00 0.00 0.00 99 1011.6
20260510071557 48 92 0.0 0.0 0.00 0.00 0.00 99 1011.4
20260510071055 48 92 0.0 0.0 0.00 0.00 0.00 99 1011.5
20260510070551 48 92 0.0 0.0 0.00 0.00 0.00 99 1011.6
20260510070049 48 92 0.0 0.0 0.00 0.00 0.00 99 1011.5
20260510065545 48 92 0.0 0.0 0.00 0.00 0.00 99 1011.5
20260510065041 48 92 0.0 0.0 0.00 0.00 0.00 99 1011.6
20260510064537 49 92 0.0 0.0 0.00 0.00 0.00 99 1011.6
20260510064034 49 92 0.0 0.0 0.00 0.00 0.00 99 1011.5
20260510063531 49 92 0.0 0.0 0.00 0.00 0.00 99 1011.7
20260510063028 49 92 0.0 0.0 0.00 0.00 0.00 99 1011.6
20260510062524 49 92 0.0 0.0 0.00 0.00 0.00 99 1011.6
20260510062019 49 92 0.0 0.0 0.00 0.00 0.00 99 1011.8
20260510061516 49 92 0.0 0.0 0.00 0.00 0.00 99 1011.6
20260510061013 49 92 0.0 0.0 0.00 0.00 0.00 99 1011.9
20260510060509 49 92 0.0 0.0 0.00 0.00 0.00 99 1011.8
20260510060006 49 92 0.0 0.0 0.00 0.00 0.00 99 1011.9
20260510055501 49 92 0.0 0.0 0.00 0.00 0.00 99 1011.8
20260510055000 50 92 0.0 0.0 0.00 0.00 0.00 99 1011.8
20260510054455 50 93 0.0 0.0 0.00 0.00 0.00 99 1011.9
20260510053950 50 92 0.0 0.0 0.00 0.00 0.00 99 1012.0
20260510053445 50 92 0.0 0.0 0.00 0.00 0.00 99 1012.2
20260510052942 50 92 0.0 0.0 0.00 0.00 0.00 99 1012.0
20260510052438 50 92 0.0 0.0 0.00 0.00 0.00 99 1011.9
20260510051934 50 92 0.0 0.0 0.00 0.00 0.00 99 1012.2
20260510051431 50 92 0.0 0.0 0.00 0.00 0.00 99 1012.2
20260510050927 50 92 0.0 0.0 0.00 0.00 0.00 99 1012.2
20260510050424 50 93 0.0 0.0 0.00 0.00 0.00 99 1012.3
20260510045921 50 93 0.0 0.0 0.00 0.00 0.00 99 1012.2
20260510045419 51 93 0.0 0.0 0.00 0.00 0.00 99 1012.2
20260510044915 51 93 0.0 0.0 0.00 0.00 0.00 99 1012.2
20260510044412 51 93 0.0 0.0 0.00 0.00 0.00 99 1012.3
20260510043909 51 93 0.0 0.0 0.00 0.00 0.00 99 1012.3
20260510043404 51 93 0.0 0.0 0.00 0.00 0.00 99 1012.3
20260510042903 51 93 0.0 0.0 0.00 0.00 0.00 99 1012.3
20260510042359 51 93 0.0 0.0 0.00 0.00 0.00 99 1012.3
20260510041854 51 93 0.0 0.0 0.00 0.00 0.00 99 1012.3
20260510041352 51 93 0.0 0.0 0.00 0.00 0.00 99 1012.5
20260510040849 51 93 0.0 0.0 0.00 0.00 0.00 99 1012.5
20260510040346 51 93 0.0 0.0 0.00 0.00 0.00 99 1012.4
20260510035841 51 93 0.0 0.0 0.00 0.05 0.05 99 1012.5
20260510035337 52 93 0.0 0.0 0.00 0.05 0.05 99 1012.5
20260510034833 52 93 0.0 0.0 0.00 0.05 0.05 99 1012.3
20260510034331 52 93 0.0 0.0 0.00 0.05 0.05 99 1012.3
20260510033828 52 93 0.0 0.0 0.00 0.05 0.05 99 1012.3
20260510033324 52 93 0.0 0.0 0.00 0.05 0.05 99 1012.1
20260510032821 52 93 0.0 0.0 0.00 0.05 0.05 99 1012.0
20260510032318 52 93 0.0 0.0 0.00 0.05 0.05 99 1012.2
20260510031813 52 93 0.0 0.0 0.00 0.05 0.05 99 1012.1
20260510031309 52 93 0.0 0.0 0.00 0.05 0.05 99 1011.9
20260510030804 52 93 0.0 0.0 0.00 0.05 0.05 99 1011.8
20260510030300 53 93 0.0 0.0 0.00 0.05 0.05 99 1011.7
20260510025758 53 93 0.0 0.0 0.00 0.05 0.05 99 1011.7
20260510025255 53 93 0.0 0.0 0.00 0.05 0.05 99 1011.8
20260510024751 53 93 0.0 0.0 0.00 0.05 0.05 99 1011.8
20260510024248 53 93 0.0 0.0 0.00 0.05 0.05 99 1011.9
20260510023744 53 93 0.0 0.0 0.00 0.05 0.05 99 1012.1
20260510023241 53 90 0.0 0.0 0.00 0.05 0.05 99 1011.9
20260510022737 53 90 0.0 0.0 0.00 0.05 0.05 99 1011.9
20260510022238 53 90 0.0 0.0 0.00 0.05 0.05 99 1011.7
20260510021732 53 90 0.0 0.0 0.00 0.05 0.05 99 1011.8
20260510021231 53 90 0.0 0.0 0.00 0.05 0.05 99 1011.9
20260510020730 54 90 0.0 0.0 0.00 0.05 0.05 99 1011.8
20260510020225 54 90 0.0 0.0 0.00 0.05 0.05 99 1011.8
20260510015721 53 90 0.0 0.0 0.00 0.05 0.05 99 1011.7
20260510015218 53 90 0.0 0.0 0.00 0.05 0.05 99 1011.8
20260510014713 53 90 0.0 0.0 0.00 0.05 0.05 99 1011.6
20260510014211 54 90 0.0 0.0 0.00 0.05 0.05 99 1011.7
20260510013706 54 90 0.0 0.0 0.00 0.05 0.05 99 1011.8
20260510013202 54 90 0.0 0.0 0.00 0.05 0.05 99 1011.7
20260510012701 54 90 0.0 0.0 0.00 0.05 0.05 99 1011.8
20260510012157 54 90 0.0 0.0 0.00 0.05 0.05 99 1011.7
20260510011652 54 90 0.0 0.0 0.00 0.05 0.05 99 1011.6
20260510011148 54 85 0.0 0.0 0.00 0.05 0.05 99 1011.4
20260510010644 55 85 0.0 0.0 0.00 0.05 0.05 99 1011.6
20260510010142 54 85 0.0 0.0 0.00 0.05 0.05 99 1011.4
20260510005637 55 85 0.0 0.0 0.00 0.05 0.05 99 1011.5
20260510005129 54 86 0.0 0.0 0.00 0.05 0.05 99 1011.5
20260510004627 55 85 0.0 0.0 0.00 0.05 0.05 99 1011.5
20260510004125 55 85 0.0 0.0 0.00 0.05 0.05 99 1011.5
20260510003622 55 86 0.0 0.0 0.00 0.05 0.05 99 1011.6
20260510003118 55 86 0.0 0.0 0.00 0.05 0.05 99 1011.5
20260510002618 55 86 0.0 0.0 0.00 0.05 0.05 99 1011.4
20260510002115 55 86 0.0 0.0 0.00 0.05 0.05 99 1011.5
20260510001612 56 86 0.0 0.0 0.00 0.05 0.05 99 1011.4
20260510001111 56 86 0.0 0.0 0.00 0.05 0.05 99 1011.4
20260510000611 56 86 0.0 0.0 0.00 0.05 0.05 99 1011.3
20260510000108 56 86 0.0 0.0 0.00 0.05 0.05 99 1011.4
20260509235604 57 86 0.0 0.0 0.00 0.05 0.05 99 1011.6
20260509235101 57 85 0.0 0.0 0.00 0.05 0.05 99 1011.4
20260509234557 57 85 0.0 0.0 0.00 0.05 0.05 99 1011.5
20260509234055 57 86 0.0 0.0 0.00 0.05 0.05 99 1011.3
20260509233552 58 57 0.0 0.0 0.00 0.05 0.05 99 1011.2
20260509233050 58 55 0.0 0.0 0.00 0.05 0.05 99 1011.1
20260509232546 58 63 0.0 0.9 0.00 0.05 0.05 99 1011.1
20260509232043 58 96 0.0 0.0 0.00 0.05 0.05 99 1011.1
20260509231539 58 96 0.0 0.9 0.00 0.05 0.05 99 1011.0